Вернуться в каталог

RASSVET-3 10

АктивенНаукаPO
NORAD 68369·PAYLOAD·🇷🇺 Russia

Запущен Mar 23, 2026 с Plesetsk Cosmodrome

Loading…

Ближайшие Пролёты (ближайшие 24 часа)

TLE

СвежийSource: Space-Track

Эпоха: Sep 14, 2026, 20:33 UTC

1 68369U 26061K   26257.85693579  .00003143  00000-0  15136-3 0  9991
2 68369  82.2824 274.9928 0002973 131.7158 228.4330 15.18421011 27531

Отслеживайте RASSVET-3 10 в реальном времени с AllMySat

Download on the App Store